Location: Cheyres
(46.8153°N, 6.7877°E)
Time: 23:14:52
(UTC+00:00)

FENGYUN 1C DEB - Pass Details

Date: 29 November 2021
Orbit: 843 x 915 km, 99.0° (Epoch: 21 January)

Event Time Altitude Azimuth Distance (km) Brightness Sun altitude
Exits shadow 17:03:31 13° 43° (NE) 2,315 ? -12.6°
Drops below altitude 10° 17:05:10 10° 25° (NNE) 2,513 ? -12.9°
Sets 17:08:50 0° 0° (N) 3,441 ? -13.5°
